Location: Cran-Gévrier
(45.9039°N, 6.1012°E)
Time: 09:57:54
(UTC+00:00)

Cosmos 2237 Rocket - Pass Details

Date: 09 February 2023
Orbit: 835 x 849 km, 71.0° (Epoch: 31 March)

Event Time Altitude Azimuth Distance (km) Brightness Sun altitude
Rises 18:24:20 0° 181° (S) 3,393 5.4 -16.4°
Reaches altitude 10° 18:26:54 10° 173° (S) 2,464 4.6 -16.8°
Maximum altitude 18:32:06 39° 107° (ESE) 1,254 2.6 -17.7°
Enters shadow 18:34:24 27° 61° (ENE) 1,571 3.1 -18.1°
